Flag for French Polynesia Weather past 2 weeks in Taiohae, Marquesas Islands, French Polynesia

Now
74 °F

Mild.


Feels Like: 74 °F
Forecast: 76 / 82 °F
Wind: 2 mph from Northeast

Location: Atuona

Current Time: Sep 2, 2015 at 9:54:13 PM

Latest Report: Sep 2, 2015 at 8:30 PM


Visibility: N/A

Pressure: 29.93 "Hg

Humidity: 83%

Dew point: 69 °F

Location of TaiohaeLocation

Historic Weather in Taiohae — Graph

°F

Taiohae temperature yesterday

Maximum temperature yesterday: 86 °F (at 10:30 AM)
Minimum temperature yesterday: 74 °F (at 4:30 AM)
Average temperature yesterday: 78 °F

Past Weeks' High & Low Weather Summary

 TemperatureHumidityPressure
High88 °F (Sep 2, 12:30 PM)90% (Aug 21, 7:30 PM)29.98 "Hg (Aug 21, 7:30 PM)
Low72 °F (Aug 19, 5:30 AM)55% (Aug 30, 12:30 PM)29.80 "Hg (Aug 19, 2:30 PM)
Average78 °F75%29.90 "Hg
* Reported Aug 18 8:30 PM — Sep 2 8:30 PM, Taiohae, Weather by CustomWeather, © 2015

Note: Actual official high and low records may vary slightly from our data, if they occured in-between our weather recording intervals... More about our weather records

Advertising

Taiohae weather history for previous 24 hours

 ConditionsComfort  
Time TempWeatherWind HumidityBarometerVisibility
8:30 PM
Wed, Sep 2
74 °FMild.2 mph83%29.93 "HgN/A
7:30 PM75 °FMild.No wind81%29.91 "HgN/A
5:30 PM78 °FWarm.6 mph74%29.87 "HgN/A
4:30 PM80 °FWarm.7 mph68%29.86 "HgN/A
3:30 PM83 °FOvercast.8 mph63%29.85 "Hg28 mi
2:30 PM86 °FOvercast.8 mph58%29.86 "Hg28 mi
1:30 PM87 °FOvercast.10 mph60%29.88 "Hg25 mi
12:30 PM88 °FOvercast.10 mph59%29.90 "Hg25 mi
10:30 AM86 °FWarm.12 mph62%29.96 "HgN/A
9:30 AM81 °FOvercast.10 mph71%29.98 "Hg25 mi
8:30 AM82 °FWarm.8 mph68%29.98 "HgN/A
7:30 AM81 °FWarm.2 mph71%29.97 "HgN/A
6:30 AM73 °FMild.3 mph87%29.96 "HgN/A
5:30 AM73 °FMild.No wind87%29.95 "HgN/A
4:30 AM73 °FMild.2 mph86%29.94 "HgN/A
3:30 AM74 °FMild.3 mph84%29.93 "HgN/A
2:30 AM73 °FMild.1 mph86%29.93 "HgN/A
1:30 AM74 °FMild.1 mph84%29.93 "HgN/A
12:30 AM74 °FMild.2 mph84%29.95 "HgN/A
11:30 PM
Tue, Sep 1
74 °FMild.1 mph85%29.96 "HgN/A
10:30 PM75 °FMild.No wind84%29.97 "HgN/A
9:30 PM76 °FMild.2 mph82%29.96 "HgN/A
Weather by CustomWeather, © 2015

See weather overviewHow to use our weather pages